Location: Eschentzwiller
(47.7125°N, 7.3981°E)
Time: 04:08:57
(UTC+00:00)

CZ-2D R/B - Pass Details

Date: 27 October 2020
Orbit: 522 x 537 km, 97.4° (Epoch: 01 December)

Event Time Altitude Azimuth Distance (km) Brightness Sun altitude
Rises 17:41:44 0° 163° (SSE) 2,651 6.7 -14.3°
Reaches altitude 10° 17:43:49 10° 163° (SSE) 1,765 5.8 -14.6°
Maximum altitude 17:47:38 82° 77° (ENE) 536 3.1 -15.2°
Drops below altitude 10° 17:51:28 10° 349° (N) 1,773 6.0 -15.9°
Sets 17:53:34 0° 349° (NNW) 2,666 6.9 -16.2°
